Date String (YYYY-MM-DD hh:mm:ss) UTC,Instrument flags,Ambient pressure (hPa),Sample flow (lpm),Bypass flow (lpm),Sample temperature (°C),Ambient temperature (°C),ASC tube jacket temperature (°C),LED temperature (°C),Box temperature (°C),Sample RH (%),Span deviation,Mass concentration (μg/m³),Mass concentration (μg/m³),Mass concentration (μg/m³)
DateTimeUTC,F1_M11,P_M11,Q1_M11,Q2_M11,T1_M11,T2_M11,T3_M11,T4_M11,T5_M11,U1_M11,ZSPAN_M11,X0_M11,X2_M11,X1_M11
2022-12-22 13:00:00,,0827.7,5.02,0.00,21.1,19.6,00.0,30.1,22.3,02.2,0004.0,0008.26,0004.51,0003.90
2022-12-22 13:01:00,,0827.8,4.96,0.00,21.2,20.4,00.0,30.0,22.6,02.1,0004.0,0008.32,0004.54,0003.91
2022-12-22 13:02:00,,0827.8,5.03,0.00,21.3,21.0,00.0,30.0,22.8,02.1,0003.6,0008.38,0004.55,0003.92
2022-12-22 13:03:00,,0827.8,5.00,0.00,21.4,21.5,00.0,30.0,23.0,02.1,0003.3,0008.45,0004.58,0003.92
2022-12-22 13:04:00,,0827.8,5.01,0.00,21.5,21.9,00.0,30.0,23.2,02.1,0003.4,0008.46,0004.58,0003.91
2022-12-22 13:05:00,,0827.8,4.97,0.00,21.5,21.9,00.0,30.1,23.2,02.1,0003.6,0008.48,0004.60,0003.91
2022-12-22 13:06:00,,0827.8,5.03,0.00,21.5,20.7,00.0,30.1,22.9,02.1,0003.3,0008.49,0004.61,0003.91
2022-12-22 13:07:00,,0827.7,5.01,0.00,21.3,19.4,00.0,30.2,22.4,02.1,0002.6,0008.33,0004.57,0003.90
2022-12-22 13:08:00,,0827.7,4.97,0.00,21.1,19.0,00.0,30.1,22.1,02.2,0002.4,0008.60,0004.56,0003.91
2022-12-22 13:09:00,,0827.9,4.98,0.00,21.1,19.9,00.0,30.0,22.4,02.2,0002.3,0008.56,0004.55,0003.89
2022-12-22 13:10:00,,0828.0,5.02,0.00,21.2,20.6,00.0,30.0,22.6,02.2,0002.4,0008.46,0004.50,0003.86
2022-12-22 13:11:00,,0828.0,4.96,0.00,21.3,21.1,00.0,29.9,22.8,02.2,0002.0,0008.41,0004.48,0003.84
2022-12-22 13:12:00,,0828.0,5.03,0.00,21.3,21.4,00.0,29.9,22.9,02.2,0002.1,0008.43,0004.45,0003.82
2022-12-22 13:13:00,,0827.9,4.97,0.00,21.4,21.6,00.0,30.0,23.0,02.2,0002.2,0008.36,0004.40,0003.79
2022-12-22 13:14:00,,0827.8,5.04,0.00,21.5,21.8,00.0,30.0,23.2,02.2,0002.3,0008.55,0004.42,0003.78
2022-12-22 13:15:00,,0827.7,4.97,0.00,21.6,22.0,00.0,30.0,23.2,02.1,0001.4,0008.54,0004.40,0003.76
2022-12-22 13:16:00,,0827.8,5.04,0.00,21.6,22.1,00.0,30.1,23.3,02.1,0000.8,0008.43,0004.33,0003.74
2022-12-22 13:17:00,,0827.9,4.96,0.00,21.7,21.7,00.0,30.1,23.2,02.1,0000.8,0008.38,0004.29,0003.72
2022-12-22 13:18:00,,0827.8,5.02,0.00,21.5,20.0,00.0,30.2,22.6,02.1,0001.1,0008.50,0004.32,0003.71
2022-12-22 13:19:00,,0827.8,4.99,0.00,21.2,18.5,00.0,30.2,22.0,02.2,0001.0,0008.27,0004.31,0003.69
2022-12-22 13:20:00,,0827.7,4.98,0.00,21.0,18.7,00.0,30.1,22.0,02.2,0000.7,0008.06,0004.29,0003.68
2022-12-22 13:21:00,,0827.8,5.02,0.00,21.1,19.6,00.0,30.0,22.3,02.2,0000.5,0008.22,0004.30,0003.69
2022-12-22 13:22:00,,0827.8,5.00,0.00,21.2,20.3,00.0,29.9,22.5,02.2,0001.0,0008.61,0004.28,0003.68
2022-12-22 13:23:00,,0827.7,4.98,0.00,21.2,20.7,00.0,29.9,22.7,02.2,0002.1,0008.76,0004.29,0003.68
2022-12-22 13:24:00,,0827.7,5.03,0.00,21.3,20.9,00.0,29.9,22.8,02.2,0002.0,0008.67,0004.29,0003.68
2022-12-22 13:25:00,,0827.6,4.97,0.00,21.3,21.1,00.0,29.9,22.9,02.2,0001.7,0008.35,0004.21,0003.68
2022-12-22 13:26:00,,0827.6,5.03,0.00,21.4,21.3,00.0,29.9,22.9,02.2,0002.0,0008.35,0004.22,0003.67
2022-12-22 13:27:00,,0827.7,4.97,0.00,21.4,21.5,00.0,29.9,23.0,02.2,0001.8,0008.91,0004.28,0003.68
2022-12-22 13:28:00,,0827.8,4.99,0.00,21.5,21.6,00.0,30.0,23.1,02.2,0002.5,0008.91,0004.28,0003.68
2022-12-22 13:29:00,,0827.7,5.02,0.00,21.5,21.7,00.0,30.0,23.1,02.1,0002.9,0008.86,0004.27,0003.68
2022-12-22 13:30:00,,0827.7,4.97,0.00,21.6,21.7,00.0,30.0,23.1,02.1,0003.0,0008.85,0004.27,0003.68
2022-12-22 13:31:00,,0827.9,5.02,0.00,21.6,21.7,00.0,30.0,23.2,02.1,0003.1,0008.85,0004.25,0003.68
2022-12-22 13:32:00,,0827.9,4.97,0.00,21.7,21.8,00.0,30.1,23.3,02.1,0002.9,0008.71,0004.26,0003.69
2022-12-22 13:33:00,,0827.9,5.04,0.00,21.7,21.8,00.0,30.1,23.3,02.1,0002.7,0008.38,0004.31,0003.72
2022-12-22 13:34:00,,0827.9,4.97,0.00,21.8,21.8,00.0,30.1,23.4,02.1,0002.0,0008.20,0004.33,0003.74
2022-12-22 13:35:00,,0827.7,5.05,0.00,21.8,21.8,00.0,30.2,23.4,02.1,0001.8,0008.28,0004.37,0003.75
2022-12-22 13:36:00,,0827.7,4.97,0.00,21.9,21.9,00.0,30.2,23.4,02.1,0001.8,0008.38,0004.40,0003.76
2022-12-22 13:37:00,,0827.8,5.04,0.00,21.9,22.0,00.0,30.3,23.5,02.1,0001.7,0008.38,0004.40,0003.79
2022-12-22 13:38:00,,0827.8,4.96,0.00,22.0,22.1,00.0,30.3,23.6,02.1,0002.1,0007.95,0004.36,0003.80
2022-12-22 13:39:00,,0827.8,5.05,0.00,22.0,22.1,00.0,30.4,23.6,02.1,0001.8,0008.09,0004.38,0003.80
2022-12-22 13:40:00,,0827.8,5.00,0.00,21.9,21.0,00.0,30.4,23.2,02.1,0001.7,0008.08,0004.37,0003.79
2022-12-22 13:41:00,,0827.8,4.96,0.00,21.6,19.5,00.0,30.5,22.7,02.1,0001.7,0008.23,0004.36,0003.79
2022-12-22 13:42:00,,0827.9,5.02,0.00,21.4,18.9,00.0,30.4,22.4,02.1,0001.6,0008.29,0004.37,0003.80
2022-12-22 13:43:00,,0827.9,5.03,0.00,21.4,19.7,00.0,30.3,22.6,02.1,0001.9,0008.29,0004.38,0003.79
2022-12-22 13:44:00,,0827.9,4.99,0.00,21.5,20.5,00.0,30.2,22.8,02.1,0001.6,0008.26,0004.36,0003.77
2022-12-22 13:45:00,,0827.9,4.99,0.00,21.5,21.0,00.0,30.2,23.0,02.1,0001.6,0008.25,0004.34,0003.76
2022-12-22 13:46:00,,0827.8,5.03,0.00,21.6,21.4,00.0,30.2,23.1,02.1,0001.7,0008.22,0004.31,0003.74
2022-12-22 13:47:00,,0828.0,4.96,0.00,21.6,21.6,00.0,30.2,23.2,02.1,0002.1,0008.20,0004.30,0003.72
2022-12-22 13:48:00,,0827.9,5.04,0.00,21.7,21.8,00.0,30.2,23.3,02.1,0002.3,0008.14,0004.28,0003.69
2022-12-22 13:49:00,,0827.9,4.97,0.00,21.8,22.0,00.0,30.3,23.4,02.1,0002.0,0008.13,0004.27,0003.66
2022-12-22 13:50:00,,0827.9,5.03,0.00,21.8,22.1,00.0,30.3,23.5,02.1,0002.0,0007.90,0004.26,0003.65
2022-12-22 13:51:00,,0827.9,4.97,0.00,21.9,22.2,00.0,30.3,23.6,02.1,0001.9,0007.91,0004.27,0003.65
2022-12-22 13:52:00,,0827.9,5.02,0.00,21.9,21.4,00.0,30.4,23.3,02.1,0001.9,0007.78,0004.28,0003.64
2022-12-22 13:53:00,,0827.9,4.96,0.00,21.6,19.9,00.0,30.4,22.8,02.1,0001.8,0007.75,0004.27,0003.63
2022-12-22 13:54:00,,0827.9,4.98,0.00,21.3,18.8,00.0,30.4,22.2,02.1,0001.9,0007.75,0004.27,0003.63
2022-12-22 13:55:00,,0827.9,5.02,0.00,21.3,19.4,00.0,30.3,22.4,02.1,0002.2,0007.80,0004.28,0003.63
2022-12-22 13:56:00,,0827.9,5.03,0.00,21.3,20.2,00.0,30.2,22.6,02.1,0002.5,0007.76,0004.27,0003.63
2022-12-22 13:57:00,,0827.9,4.96,0.00,21.4,20.8,00.0,30.2,22.9,02.1,0002.3,0007.75,0004.27,0003.63
2022-12-22 13:58:00,,0828.0,5.03,0.00,21.5,21.2,00.0,30.2,23.0,02.1,0001.7,0007.83,0004.28,0003.63
2022-12-22 13:59:00,,0828.1,4.97,0.00,21.5,21.6,00.0,30.2,23.2,02.1,0001.8,0007.87,0004.31,0003.64
